Location: Caixon
(43.4106°N, 0.0273°E)
Time: 15:05:54
(UTC+00:00)

Cosmos 1975 Rocket - Pass Details

Date: 16 October 2021
Orbit: 603 x 634 km, 82.5° (Epoch: 28 November)

Event Time Altitude Azimuth Distance (km) Brightness Sun altitude
Rises 05:42:34 0° 185° (S) 2,873 6.5 -6.7°
Reaches altitude 10° 05:44:46 10° 185° (S) 1,978 5.7 -6.3°
Maximum altitude 05:49:09 86° 100° (E) 631 3.2 -5.5°
Drops below altitude 10° 05:53:38 10° 9° (N) 2,013 5.7 -4.7°
Sets 05:55:53 0° 9° (N) 2,929 6.5 -4.3°
